Location: De Har
(53.3413°N, 6.6858°E)
Time: 08:40:05
(UTC+00:00)

SL-4 R/B - Pass Details

Date: 22 April 2026
Orbit: 380 x 506 km, 51.6° (Epoch: 13 May)

Event Time Altitude Azimuth Distance (km) Brightness Sun altitude
Exits shadow 03:06:06 15° 240° (WSW) 1,429 3.5 -10.2°
Maximum altitude 03:07:15 17° 219° (SW) 1,335 3.4 -10.1°
Drops below altitude 10° 03:09:42 10° 179° (S) 1,674 4.2 -9.8°
Sets 03:12:26 0° 158° (SSE) 2,527 5.3 -9.5°
